Regional Weather Roundup
Issued by NWS

Home | Current Version | Previous Version | Text Only | Print | Product List | Glossary On
Versions: 1 2 3 4 5 6 7 8 9 10 11 12 13 14 15 16 17 18 19 20 21 22 23 24 25 26 27 28 29 30 31 32 33 34 35 36 37 38 39 40 41 42 43 44 45 46 47 48 49 50
000
ASUS43 KMPX 271310
RWRMN
WEATHER ROUNDUP FOR MINNESOTA
NATIONAL WEATHER SERVICE TWIN CITIES/CHANHASSEN MN
800 AM CDT TUE JUN 27 2017


NOTE: "FAIR" INDICATES FEW OR NO CLOUDS BELOW 12,000 FEET WITH NO
SIGNIFICANT WEATHER AND/OR OBSTRUCTIONS TO VISIBILITY. N/A MEANS
CURRENT SKY AND/OR WEATHER CONDITIONS ARE NOT AVAILABLE.

MNZ060>063-068>070-271400-
   Twin Cities Metro

CITY           SKY/WX    TMP DP  RH WIND       PRES   REMARKS
TWIN CITIES    MOSUNNY   62  45  53 SW6       30.10S
ST PAUL        SUNNY     60  52  74 CALM      30.11R
CRYSTAL        SUNNY     62  47  57 SW6       30.09R
BLAINE         SUNNY     63  48  59 SW6       30.09R
LAKEVILLE      SUNNY     61  48  63 CALM      30.10S
EDEN PRAIRIE   SUNNY     58  48  69 SW3       30.10R
SOUTH ST PAUL  SUNNY     60  46  60 SW3       30.10S
LAKE ELMO      FAIR      59  52  77 CALM      30.11R
$$
MNZ001>005-007-008-013>017-022>024-027-028-271400-
   Northwest Minnesota

CITY           SKY/WX    TMP DP  RH WIND       PRES   REMARKS
BEMIDJI        MOSUNNY   55  45  68 SW6       30.01F
HALLOCK        CLOUDY    57  46  67 S12       29.90F
ROSEAU         CLOUDY    55  46  71 S10       29.94S
WARROAD        CLOUDY    57  48  72 SW7       29.95S
THIEF RVR FALL PTSUNNY   55  43  63 S10       29.97F
CROOKSTON      CLOUDY    55  45  67 S13       29.95F
FOSSTON        MOSUNNY   55  43  62 S13G18    29.99F
DETROIT LAKES  SUNNY     61  43  51 SW9       30.01F
MOORHEAD       SUNNY     59  43  55 S10G17    29.99F
PARK RAPIDS    MOSUNNY   57  44  62 SW8       30.02F
MAHNOMEN       FAIR      56  44  64 S12       29.99F
$$
MNZ006-009>011-018-025>026-271400-
   North Central Minnesota

CITY           SKY/WX    TMP DP  RH WIND       PRES   REMARKS
BAUDETTE       MOSUNNY   58  46  64 SW8       29.96F
FLAG ISLAND    MOSUNNY   61  46  59 SW9       29.92S
INTL FALLS     SUNNY     56  46  69 SW6       29.99S
WASKISH        MOSUNNY   55  48  76 SW3       29.99F
BIG FORK       PTSUNNY   55  54  94 S3        30.01F
LONGVILLE      MOSUNNY   55  50  82 W3        30.04S
GRAND RAPIDS   CLOUDY    59  43  55 W9        30.06S
CRANE LAKE     SUNNY     54  48  82 CALM      30.02S
ORR            SUNNY     52  46  82 CALM      29.99F
COOK           MOSUNNY   55  48  76 SW3       30.02S
WALKER         FAIR      56  45  65 SW8       30.03S
$$
MNZ012-019>021-037-271400-
   Northeast Minnesota

CITY           SKY/WX    TMP DP  RH WIND       PRES   REMARKS
DULUTH         SUNNY     60  45  57 W8        30.04S
ELY            SUNNY     55  46  71 W5        30.02S
HIBBING        SUNNY     57  49  74 SW5       30.03F
EVELETH        SUNNY     55  46  72 SW3       30.04S
DULUTH HARBOR  SUNNY     57  48  72 S8        30.04S
TWO HARBORS    SUNNY     61  52  72 W6        30.02S
SILVER BAY     SUNNY     57  52  82 CALM      30.01S
GRAND MARAIS     N/A     50  46  86 SW9       29.99S
G MARAIS ARPRT SUNNY     57  45  62 W5        30.02S
$$
MNZ029>031-032-039>041-046>048-054>057-064-271400-
   West Central Minnesota

CITY           SKY/WX    TMP DP  RH WIND       PRES   REMARKS
FERGUS FALLS   SUNNY     61  43  51 S12       30.00F
WHEATON        MOSUNNY   59  43  55 S7        30.03F
MORRIS         SUNNY     59  46  63 S8        30.03F
ALEXANDRIA     SUNNY     61  43  51 S13       30.06F
ELBOW LAKE     FAIR      58  46  63 S10G16    30.03F
WADENA         SUNNY     57  46  67 SW5       30.03F
GLENWOOD       SUNNY     57  46  67 S9        30.06F
APPLETON       SUNNY     61  45  55 S8        30.04F
BENSON         SUNNY     59  46  63 SW8       30.07F
ORTONVILLE     SUNNY     57  45  62 S6        30.03F
MADISON        SUNNY     61  46  59 S9        30.05F
WILLMAR        FAIR      61  46  59 S3        30.08F
$$
MNZ033>034-036-042>043-049>051-058-059-271400-
   Central Minnesota

CITY           SKY/WX    TMP DP  RH WIND       PRES   REMARKS
ST CLOUD       SUNNY     58  48  69 SW5       30.08S
SAUK CENTRE    FAIR      59  45  58 S6        30.07F
PAYNESVILLE    SUNNY     60  44  54 S7        30.09S
AITKIN         SUNNY     57  48  72 SW3       30.04S
PINE RIVER     CLOUDY    54  48  82 CALM      30.08S
BRAINERD       MOSUNNY   54  46  74 S5        30.06S
STAPLES        MOSUNNY   54  46  76 S5        30.04F
LONG PRAIRIE   FAIR      55  45  67 S8        30.07F
LITTLE FALLS   MOSUNNY   55  45  67 SW3       30.07S
LITCHFIELD     SUNNY     61  48  63 CALM      30.10R
BUFFALO        MOSUNNY   57  47  67 S3        30.11R
MAPLE LAKE     SUNNY     62  50  64 SW5       30.10S
HUTCHINSON     CLOUDY    61  47  61 SW6       30.11R
$$
MNZ037-044-045-052-053-271400-
   East Central Minnesota

CITY           SKY/WX    TMP DP  RH WIND       PRES   REMARKS
PRINCETON      SUNNY     57  50  77 CALM      30.09S
MORA           MOSUNNY   54  45  71 CALM      30.09S
CAMBRIDGE      MOSUNNY   59  46  63 CALM      30.07R
RUSH CITY      MOSUNNY   57  48  72 CALM      30.09R
MOOSE LAKE     MOSUNNY   55  50  82 CALM      30.05R
HINCKLEY       FAIR      55  48  76 CALM      30.08R
CLOQUET        SUNNY     61  43  51 W8        30.05S
MCGREGOR       MOSUNNY   55  48  76 CALM      30.06S
$$
MNZ071>073-080-081-089-090-097-098-271400-
   Southwest Minnesota

CITY           SKY/WX    TMP DP  RH WIND       PRES   REMARKS
MONTEVIDEO     SUNNY     59  46  63 SW7       30.06F
GRANITE FALLS  SUNNY     59  48  66 S8        30.09S
CANBY          MOSUNNY   61  43  52 CALM      30.06F
MARSHALL       SUNNY     61  44  53 S12       30.07F
REDWOOD FALLS  SUNNY     60  43  53 S8        30.08F
OLIVIA         SUNNY     59  45  58 S7        30.08S
PIPESTONE      SUNNY     57  43  58 S10       30.07F
WINDOM         SUNNY     59  45  58 S7        30.10F
WORTHINGTON    SUNNY     59  44  57 S8        30.11F
JACKSON        SUNNY     57  43  58 S9        30.12S
TRACY          SUNNY     60  44  56 S9        30.09S
SLAYTON        SUNNY     55  45  68 S6        30.11S
$$
MNZ065>067-074>077-082>085-091>093-271400-
   South Central Minnesota

CITY           SKY/WX    TMP DP  RH WIND       PRES   REMARKS
MANKATO        SUNNY     58  48  69 S3        30.12R
NEW ULM        SUNNY     59  45  58 SW5       30.10S
ST JAMES       SUNNY     59  45  58 S5        30.12S
FAIRMONT       SUNNY     59  47  64 S7        30.12S
GLENCOE        SUNNY     59  50  71 CALM      30.10S
FARIBAULT      SUNNY     57  48  72 S3        30.12S
OWATONNA       SUNNY     61  46  59 SW8       30.13R
WASECA         SUNNY     55  46  71 S5        30.14R
ALBERT LEA     SUNNY     59  45  58 SW5       30.13S
$$
MNZ078>079-086>088-094>096-271400-
   Southeast Minnesota

CITY           SKY/WX    TMP DP  RH WIND       PRES   REMARKS
ROCHESTER      SUNNY     59  47  64 SW9       30.14R
RED WING       SUNNY     57  46  67 CALM      30.10S
STANTON        SUNNY     58  49  71 S3        30.11R
DODGE CENTER   SUNNY     57  46  67 SW7       30.13R
WINONA         SUNNY     57  50  77 CALM      30.12S
AUSTIN         SUNNY     55  46  71 CALM      30.13S
PRESTON        SUNNY     59  45  59 W6        30.14S
$$
ABBREVIATIONS USED IN REMARKS
   TC - TEMPERATURES IN CELSIUS
  WCI - WIND CHILL INDEX
   HX - HEAT INDEX
  VSB - VISIBILITY
$$



USA.gov is the U.S. government's official web portal to all federal, state and local government web resources and services.